Location: Unspecified
(0.0000°N, 0.0000°E)
Time: 01:50:04
(UTC+00:00)

ESSA 4 - Pass Details

Date: 11 November 2024
Orbit: 1326 x 1439 km, 102.1° (Epoch: 03 December)

Event Time Altitude Azimuth Distance (km) Brightness Sun altitude
Rises 04:31:56 0° 173° (S) 4,335 12.2 -17.2°
Reaches altitude 10° 04:34:40 10° 177° (S) 3,359 11.6 -16.5°
Maximum altitude 04:42:12 58° 253° (WSW) 1,522 9.2 -14.7°
Drops below altitude 10° 04:49:46 10° 331° (NNW) 3,372 10.9 -12.9°
Sets 04:52:33 0° 335° (NNW) 4,353 11.5 -12.3°
